[[{"header":{"parameterUnit":"m.s-1","parameterCategory":1,"la1":30.2991,"la2":30.254,"lo1":-89.0895,"lo2":-89.0444,"dy":0.0017,"dx":0.0017,"nx":28,"ny":28,"refTime":"2025-03-19T09:00:00:Z","depth":0,"parameterNumber":2,"parameterNumberName":"U-component_of_WINDS"},"data":[0,0,0,0,0,0,0,0,0,0,0,0,0,0,0,0,0,0,0,0,0,0,0,0,0,0,0,0,0,0,0,0,0,0,0,0,0,0,0,0,0,0,0,0,0,0,0,0,0,0,0,0,0,0,0,0,0,0,-0.0046,-0.0046,0,-0.0102,-0.0103,-0.0103,-0.0133,-0.0133,-0.0133,-0.0133,-0.0194,-0.0196,-0.0197,0,0,0,0,0,0,0,0,0,0,0,0,0,0.0032,0.0031,-0.0046,-0.0046,-0.0047,-0.0102,-0.0103,-0.0104,-0.0133,-0.0133,-0.0133,-0.0133,-0.0194,-0.0195,-0.0197,0,0,0,0,0,0,0,0,0,0,0,0,0,-0.0011,0.0031,-0.0046,-0.0069,-0.0071,-0.0102,-0.0103,-0.0104,-0.0133,-0.0133,-0.0133,-0.0133,-0.0193,-0.0195,-0.0198,-0.0211,0,0,-0.0205,-0.0206,0,0,0,0,0,0,0,0,-0.0008,-0.0013,-0.0064,-0.0067,-0.007,-0.0111,-0.0098,-0.014,-0.0133,-0.011,-0.0133,-0.0133,-0.0166,-0.0171,-0.0182,-0.0214,-0.0216,-0.0205,-0.0206,-0.0207,-0.0208,0,0,0,0,0,0,0,-0.0005,-0.0011,-0.0068,-0.0065,-0.0069,-0.0077,-0.0083,-0.0106,-0.0137,-0.0112,-0.0114,-0.012,-0.0168,-0.0179,-0.0183,-0.0217,-0.0205,-0.0207,-0.0208,-0.0209,-0.0264,-0.0264,0,0,0,0,0,0,0.0002,-0.0009,-0.0066,-0.007,-0.0039,-0.0079,-0.0085,-0.0098,-0.0137,-0.0143,-0.012,-0.0121,-0.0175,-0.018,-0.0185,-0.0204,-0.0207,-0.021,-0.0211,-0.0264,-0.0264,-0.0264,0,0,0,0,0,0,0.0004,-0.0003,-0.0064,-0.004,-0.0048,-0.008,-0.0093,-0.0099,-0.011,-0.0143,-0.0149,-0.0125,-0.0175,-0.0182,-0.0204,-0.0207,-0.0211,-0.0213,-0.0264,-0.0264,-0.0264,-0.0241,0,0,0,0,0,0,0.0006,-0.0002,-0.0006,-0.004,-0.0049,-0.0081,-0.0093,-0.01,-0.0113,-0.0116,-0.015,-0.0156,-0.0176,-0.0201,-0.0207,-0.021,-0.0215,-0.0264,-0.0264,-0.0264,-0.0242,-0.0241,-0.024,0,0,0,0,0,0.0009,0.0002,-0.0006,-0.0013,-0.0055,-0.0081,-0.0087,-0.0109,-0.0113,-0.0119,-0.014,-0.0154,-0.0205,-0.0203,-0.021,-0.0214,-0.0264,-0.0264,-0.0264,-0.0243,-0.0241,-0.024,0,0,0,0,0,0,0.0035,-0.0003,-0.0013,-0.003,-0.0052,-0.0086,-0.0093,-0.0106,-0.0128,-0.0129,-0.0157,-0.0165,-0.0185,-0.0202,-0.0198,-0.0229,-0.0236,-0.0238,-0.0218,-0.0216,-0.0215,-0.0211,-0.0217,0,0,0,0,0,0.0039,0.0022,-0.001,-0.0023,-0.0033,-0.0061,-0.0073,-0.0089,-0.0113,-0.0122,-0.0146,-0.0169,-0.0191,-0.0204,-0.0226,-0.0245,-0.0253,-0.0251,-0.025,-0.0249,-0.025,-0.0262,-0.0262,-0.0265,-0.0265,-0.0265,0,0,0.0046,0.0023,0.0015,-0.0018,-0.0037,-0.0055,-0.0069,-0.0087,-0.0101,-0.0125,-0.0148,-0.0166,-0.0194,-0.0215,-0.0225,-0.023,-0.0251,-0.0249,-0.0248,-0.025,-0.0262,-0.0262,-0.0262,-0.0265,-0.0265,-0.0265,0,0,0.005,0.0032,0.0019,0.0001,-0.0027,-0.0046,-0.0049,-0.0081,-0.0094,-0.0116,-0.0136,-0.0153,-0.0189,-0.0209,-0.0224,-0.0228,-0.0242,-0.0234,-0.0228,-0.024,-0.0239,-0.0239,-0.0242,-0.0242,-0.0235,-0.0235,-0.0235,0,0.0063,0.0036,0.0014,-0.0003,-0.0018,-0.004,-0.0055,-0.0072,-0.0105,-0.0116,-0.012,-0.0166,-0.0187,-0.0213,-0.0214,-0.0225,-0.0231,-0.0231,-0.0237,-0.0238,-0.0238,-0.0241,-0.0241,-0.0234,-0.0234,-0.0234,-0.0235,0,0.0052,0.0034,0.0027,-0.0004,-0.002,-0.0035,-0.0062,-0.0075,-0.0089,-0.0108,-0.0131,-0.0157,-0.0185,-0.0192,-0.0206,-0.0221,-0.0223,-0.0232,-0.0239,-0.0236,-0.0239,-0.024,-0.0233,-0.0233,-0.0233,-0.0234,0,0,0.0072,0.0028,0.0025,0.001,-0.0022,-0.0037,-0.0055,-0.0081,-0.0092,-0.0115,-0.0131,-0.0161,-0.017,-0.0187,-0.0204,-0.0214,-0.0217,-0.0222,-0.0223,-0.0221,-0.0236,-0.0229,-0.023,-0.0227,-0.0227,-0.0227,-0.0234,0,0.0071,0.004,0.0019,-0.0004,-0.0022,-0.0044,-0.0059,-0.0082,-0.01,-0.0119,-0.0139,-0.0161,-0.017,-0.0181,-0.0192,-0.0214,-0.0221,-0.0214,-0.0243,-0.0244,-0.0236,-0.0232,-0.0224,-0.023,-0.0235,-0.0235,-0.0236,0,0.0065,0.0044,0.002,-0.0012,-0.002,-0.0033,-0.006,-0.0077,-0.0103,-0.0116,-0.0135,-0.0152,-0.0173,-0.0178,-0.0208,-0.0203,-0.0217,-0.023,-0.023,-0.0234,-0.024,-0.0236,-0.0232,-0.0233,-0.0238,-0.0237,-0.0237,0,0.0081,0.0046,0.0026,0.0014,-0.0023,-0.0032,-0.0048,-0.0074,-0.0089,-0.0112,-0.0123,-0.0148,-0.0163,-0.0183,-0.0207,-0.0209,-0.0235,-0.0242,-0.0247,-0.0247,-0.0252,-0.0251,-0.025,-0.0259,-0.0259,-0.0259,-0.0259,0,0.0082,0.0067,0.0033,0.0021,0.0004,-0.0021,-0.0038,-0.0056,-0.008,-0.0097,-0.0118,-0.0134,-0.0165,-0.0185,-0.0204,-0.0226,-0.0233,-0.0244,-0.0249,-0.0243,-0.0241,-0.0252,-0.0253,-0.026,-0.026,-0.026,-0.0259,0,0.0096,0.0072,0.005,0.0016,0.0008,-0.0004,-0.0033,-0.0046,-0.0065,-0.0087,-0.0093,-0.0124,-0.0149,-0.0175,-0.0209,-0.0222,-0.0244,-0.0251,-0.0234,-0.0237,-0.0241,-0.024,-0.0247,-0.025,-0.0256,-0.0256,-0.0256,0,0.0098,0.0086,0.0052,0.004,0.0024,0.0005,-0.001,-0.0036,-0.0051,-0.0083,-0.0092,-0.0118,-0.0141,-0.0179,-0.0206,-0.0232,-0.024,-0.0241,-0.0244,-0.0237,-0.0241,-0.024,-0.0242,-0.024,-0.0239,-0.0239,-0.0239,0,0.0103,0.0092,0.0072,0.0047,0.003,0.0009,-0.0012,-0.0022,-0.0052,-0.0068,-0.0093,-0.011,-0.0145,-0.0171,-0.02,-0.0219,-0.0234,-0.0238,-0.024,-0.0234,-0.0224,-0.023,-0.0232,-0.0237,-0.0238,-0.0238,-0.0238,-0.0238,0.011,0.0099,0.0073,0.0051,0.0032,0.0012,-0.0002,-0.0023,-0.0044,-0.0073,-0.0088,-0.0113,-0.0141,-0.0182,-0.02,-0.0221,-0.0226,-0.0229,-0.023,-0.0231,-0.023,-0.022,-0.0226,-0.0226,-0.0227,-0.0227,-0.0227,0,0.0114,0.0096,0.0076,0.0047,0.0029,0.0017,-0.0008,-0.0023,-0.0044,-0.0068,-0.0089,-0.0119,-0.0144,-0.0173,-0.02,-0.0212,-0.022,-0.0218,-0.0218,-0.0222,-0.0223,-0.0219,-0.0212,-0.0212,-0.0212,-0.0212,-0.0212,-0.0212,0.0114,0.0094,0.0079,0.0049,0.003,0.0007,-0.0007,-0.0026,-0.0045,-0.0077,-0.0098,-0.0116,-0.0142,-0.0172,-0.0196,-0.0204,-0.0214,-0.021,-0.022,-0.0221,-0.0222,-0.0223,-0.0219,-0.0212,-0.0212,-0.0218,-0.0218,-0.0218]},{"header":{"parameterUnit":"m.s-1","parameterCategory":1,"la1":30.2991,"la2":30.254,"lo1":-89.0895,"lo2":-89.0444,"dy":0.0017,"dx":0.0017,"nx":28,"ny":28,"refTime":"2025-03-19T09:00:00:Z","depth":0,"parameterNumber":3,"parameterNumberName":"V-component_of_WINDS"},"data":[0,0,0,0,0,0,0,0,0,0,0,0,0,0,0,0,0,0,0,0,0,0,0,0,0,0,0,0,0,0,0,0,0,0,0,0,0,0,0,0,0,0,0,0,0,0,0,0,0,0,0,0,0,0,0,0,0,0,7.636,7.6361,0,7.6444,7.6445,7.6445,7.6394,7.6391,7.6389,7.6386,7.6468,7.6472,7.6477,0,0,0,0,0,0,0,0,0,0,0,0,0,7.6152,7.6156,7.636,7.6361,7.6362,7.6443,7.6445,7.6446,7.6394,7.6391,7.6388,7.6385,7.6467,7.6472,7.6477,0,0,0,0,0,0,0,0,0,0,0,0,0,7.6239,7.6157,7.636,7.6346,7.6346,7.6443,7.6445,7.6446,7.6395,7.6391,7.6387,7.6384,7.6465,7.6471,7.6478,7.6592,0,0,7.6498,7.6501,0,0,0,0,0,0,0,0,7.6234,7.6247,7.6347,7.6347,7.6347,7.6405,7.6401,7.6495,7.6396,7.6376,7.6386,7.6382,7.645,7.6457,7.6481,7.6596,7.6599,7.6499,7.6503,7.6506,7.6508,0,0,0,0,0,0,0,7.6228,7.6243,7.6393,7.6349,7.6349,7.6335,7.6343,7.6418,7.6432,7.6377,7.6374,7.6385,7.6449,7.6475,7.6482,7.6601,7.6499,7.6505,7.6509,7.6511,7.6812,7.6816,0,0,0,0,0,0,7.6224,7.6238,7.639,7.6396,7.6281,7.6341,7.6351,7.639,7.6431,7.6434,7.6388,7.6382,7.6465,7.6475,7.6485,7.6621,7.6506,7.6512,7.6516,7.6808,7.6813,7.6817,0,0,0,0,0,0,7.622,7.6238,7.6387,7.6316,7.6334,7.6349,7.6393,7.6393,7.6419,7.6439,7.6441,7.6412,7.6462,7.6476,7.6566,7.6623,7.6515,7.6521,7.6803,7.681,7.6815,7.6893,0,0,0,0,0,0,7.6214,7.6237,7.6281,7.6318,7.6338,7.6468,7.6397,7.6398,7.6431,7.6424,7.6462,7.6465,7.6461,7.6556,7.6572,7.663,7.6526,7.6798,7.6806,7.6813,7.6886,7.6901,7.6914,0,0,0,0,0,7.6207,7.6299,7.6284,7.6303,7.6394,7.6471,7.6483,7.6477,7.6436,7.648,7.6493,7.6464,7.6614,7.6566,7.6584,7.6644,7.6795,7.6804,7.6813,7.6879,7.6898,7.6914,0,0,0,0,0,0,7.6268,7.6304,7.6287,7.6395,7.6431,7.6462,7.6518,7.6498,7.6545,7.6537,7.6526,7.6535,7.6629,7.6646,7.6591,7.6756,7.6698,7.6711,7.6742,7.676,7.6774,7.6768,7.6532,0,0,0,0,0,7.6295,7.6356,7.6383,7.6475,7.6494,7.6503,7.6537,7.6529,7.6565,7.658,7.6599,7.6634,7.6689,7.6726,7.6777,7.6888,7.6895,7.6938,7.6952,7.6964,7.6975,7.7034,7.7053,7.6847,7.6847,7.6847,0,0,7.6349,7.6376,7.6415,7.6488,7.6515,7.6577,7.6516,7.6584,7.663,7.659,7.6676,7.6692,7.673,7.6831,7.6876,7.6847,7.7034,7.6976,7.6985,7.699,7.7045,7.7064,7.7082,7.6853,7.6852,7.6851,0,0,7.648,7.6508,7.6587,7.6615,7.6657,7.6663,7.6682,7.6717,7.6726,7.6813,7.6784,7.6837,7.6933,7.6961,7.6988,7.7129,7.7104,7.7146,7.7221,7.7278,7.7295,7.7309,7.7358,7.7377,7.7157,7.7158,7.7158,0,7.6543,7.6636,7.663,7.6701,7.6733,7.6701,7.678,7.6807,7.6864,7.6886,7.6853,7.6972,7.6996,7.7102,7.7137,7.716,7.718,7.7142,7.7293,7.7307,7.7321,7.7368,7.7386,7.7162,7.7162,7.7161,7.7161,0,7.671,7.6775,7.6834,7.689,7.6929,7.7004,7.7008,7.7047,7.7037,7.7045,7.7133,7.7161,7.7217,7.7242,7.7232,7.7347,7.7327,7.7294,7.7235,7.7345,7.7389,7.7407,7.7169,7.7168,7.7166,7.7165,0,0,7.6882,7.6934,7.6956,7.698,7.7024,7.7074,7.7146,7.7203,7.7237,7.7276,7.7336,7.7417,7.7387,7.7417,7.741,7.746,7.757,7.7421,7.7421,7.7447,7.7697,7.7721,7.7742,7.7553,7.7557,7.7559,7.7693,0,7.7015,7.7143,7.7139,7.7258,7.7317,7.7287,7.735,7.7383,7.7393,7.7444,7.7454,7.7511,7.7467,7.7485,7.7534,7.7546,7.7619,7.7536,7.7607,7.761,7.7598,7.7765,7.7791,7.7916,7.771,7.7713,7.7716,0,7.7187,7.7234,7.7359,7.7393,7.7418,7.7475,7.7526,7.7575,7.7611,7.7614,7.7649,7.7633,7.7705,7.7645,7.7743,7.7687,7.7716,7.7726,7.7731,7.7736,7.7669,7.7774,7.7956,7.7974,7.7743,7.7741,7.7739,0,7.7299,7.7393,7.748,7.7502,7.7544,7.7585,7.7604,7.7637,7.7671,7.7715,7.7736,7.7788,7.7816,7.7856,7.7854,7.7811,7.7954,7.7893,7.7957,7.7958,7.7988,7.7986,7.8176,7.8008,7.8008,7.8008,7.8007,0,7.7447,7.7525,7.753,7.7584,7.7669,7.7663,7.7747,7.7762,7.7792,7.7846,7.7823,7.7874,7.787,7.7921,7.792,7.8001,7.8014,7.8018,7.8017,7.802,7.8019,7.8038,7.8029,7.8013,7.8012,7.8011,7.801,0,7.7587,7.7594,7.7686,7.7719,7.7729,7.779,7.7817,7.7867,7.7875,7.7944,7.796,7.7972,7.8031,7.8034,7.8102,7.8101,7.82,7.8189,7.8188,7.8186,7.8249,7.8243,7.8457,7.8485,7.83,7.8302,7.8303,0,7.7681,7.7739,7.7779,7.7814,7.7836,7.7894,7.7928,7.7925,7.7961,7.8007,7.8051,7.8108,7.8154,7.825,7.8264,7.8316,7.8306,7.8377,7.8313,7.8314,7.8306,7.8302,7.8308,7.8389,7.8392,7.8393,7.8395,0,7.7846,7.7847,7.7898,7.7951,7.7993,7.8035,7.8073,7.8103,7.8103,7.8145,7.8206,7.8242,7.8312,7.8369,7.8419,7.8437,7.8416,7.8415,7.8432,7.8435,7.8432,7.8434,7.8221,7.841,7.8408,7.8407,7.8406,7.8406,7.7965,7.8016,7.8051,7.8109,7.8138,7.8174,7.8222,7.8236,7.8287,7.8345,7.8339,7.8407,7.844,7.8506,7.8528,7.858,7.8556,7.8581,7.8587,7.8593,7.86,7.8425,7.8589,7.8589,7.8589,7.8588,7.8588,0,7.8129,7.815,7.8204,7.8258,7.8303,7.828,7.8321,7.836,7.842,7.8454,7.85,7.8569,7.8624,7.8643,7.8696,7.8734,7.8725,7.8748,7.8745,7.8749,7.8619,7.8599,7.8754,7.8754,7.8754,7.8754,7.8754,7.8754,7.8219,7.8304,7.8308,7.8406,7.8426,7.8493,7.8518,7.8551,7.8578,7.8657,7.8703,7.8715,7.8742,7.8797,7.8846,7.885,7.887,7.8897,7.8897,7.8775,7.8758,7.8742,7.8723,7.8902,7.8902,7.9022,7.9023,7.9024]}]]